[[{"header":{"parameterUnit":"m.s-1","parameterCategory":1,"la1":30.2991,"la2":30.254,"lo1":-89.0895,"lo2":-89.0444,"dy":0.0017,"dx":0.0017,"nx":28,"ny":28,"refTime":"2024-05-02T03:00:00:Z","depth":0,"parameterNumber":2,"parameterNumberName":"U-component_of_WINDS"},"data":[0,0,0,0,0,0,0,0,0,0,0,0,0,0,0,0,0,0,0,0,0,0,0,0,0,0,0,0,0,0,0,0,0,0,0,0,0,0,0,0,0,0,0,0,0,0,0,0,0,0,0,0,0,0,0,0,0,0,-4.1772,-4.1773,0,-4.1871,-4.1872,-4.1873,-4.1838,-4.1836,-4.1834,-4.1832,-4.1934,-4.1938,-4.1943,0,0,0,0,0,0,0,0,0,0,0,0,0,-4.1554,-4.1558,-4.1771,-4.1773,-4.1774,-4.187,-4.1872,-4.1873,-4.1839,-4.1836,-4.1833,-4.1831,-4.1932,-4.1938,-4.1943,0,0,0,0,0,0,0,0,0,0,0,0,0,-4.165,-4.1559,-4.1771,-4.1768,-4.1769,-4.187,-4.1872,-4.1873,-4.1839,-4.1836,-4.1833,-4.183,-4.193,-4.1937,-4.1944,-4.2054,0,0,-4.1966,-4.1969,0,0,0,0,0,0,0,0,-4.1645,-4.1658,-4.1768,-4.1769,-4.177,-4.1839,-4.1832,-4.1934,-4.184,-4.1813,-4.1832,-4.1828,-4.1905,-4.1914,-4.194,-4.2059,-4.2063,-4.1967,-4.1971,-4.1974,-4.1976,0,0,0,0,0,0,0,-4.1638,-4.1654,-4.1811,-4.1769,-4.1771,-4.1763,-4.1773,-4.1851,-4.1876,-4.1815,-4.1813,-4.1825,-4.1905,-4.1933,-4.1942,-4.2064,-4.1966,-4.1973,-4.1977,-4.198,-4.2279,-4.2283,0,0,0,0,0,0,-4.1631,-4.1648,-4.1807,-4.1814,-4.1698,-4.1769,-4.178,-4.182,-4.1875,-4.188,-4.1828,-4.1823,-4.1922,-4.1933,-4.1945,-4.2077,-4.1974,-4.1981,-4.1985,-4.2276,-4.228,-4.2284,0,0,0,0,0,0,-4.1626,-4.1645,-4.1803,-4.1731,-4.175,-4.1776,-4.1821,-4.1824,-4.1851,-4.1885,-4.1889,-4.1851,-4.192,-4.1935,-4.2027,-4.208,-4.1984,-4.199,-4.2271,-4.2277,-4.2282,-4.2341,0,0,0,0,0,0,-4.162,-4.1644,-4.1685,-4.1732,-4.1754,-4.1884,-4.1824,-4.1828,-4.1864,-4.1859,-4.1908,-4.1913,-4.1919,-4.2017,-4.2034,-4.2088,-4.1996,-4.2267,-4.2274,-4.228,-4.2335,-4.2348,-4.236,0,0,0,0,0,-4.1612,-4.1698,-4.1688,-4.1707,-4.1806,-4.1887,-4.1899,-4.1904,-4.1868,-4.191,-4.1932,-4.1912,-4.2072,-4.2026,-4.2046,-4.2103,-4.2263,-4.2272,-4.228,-4.2329,-4.2346,-4.2359,0,0,0,0,0,0,-4.1657,-4.1704,-4.1693,-4.1796,-4.1838,-4.1881,-4.1933,-4.1921,-4.1973,-4.1966,-4.197,-4.1982,-4.2076,-4.2099,-4.2047,-4.2212,-4.2162,-4.2175,-4.2193,-4.2209,-4.2221,-4.2213,-4.2002,0,0,0,0,0,-4.1678,-4.1739,-4.1778,-4.1865,-4.1886,-4.1907,-4.1942,-4.1942,-4.1985,-4.2002,-4.2031,-4.2074,-4.2134,-4.2173,-4.223,-4.2339,-4.2349,-4.2388,-4.24,-4.241,-4.242,-4.248,-4.2497,-4.2311,-4.2311,-4.2311,0,0,-4.1724,-4.1757,-4.1795,-4.1875,-4.1907,-4.197,-4.1922,-4.199,-4.2038,-4.2013,-4.2101,-4.2124,-4.2172,-4.2273,-4.2319,-4.2295,-4.2475,-4.2421,-4.2429,-4.2433,-4.249,-4.2508,-4.2523,-4.2317,-4.2316,-4.2315,0,0,-4.1838,-4.187,-4.1946,-4.198,-4.203,-4.2043,-4.2062,-4.2107,-4.2121,-4.221,-4.2193,-4.225,-4.2353,-4.2388,-4.242,-4.2551,-4.2534,-4.2569,-4.2634,-4.2692,-4.2706,-4.2719,-4.2765,-4.2782,-4.258,-4.258,-4.258,0,-4.1888,-4.1983,-4.1987,-4.2058,-4.2093,-4.2075,-4.2152,-4.2185,-4.2251,-4.2276,-4.2248,-4.2378,-4.241,-4.2519,-4.2551,-4.2577,-4.2598,-4.2563,-4.2704,-4.2717,-4.2729,-4.2773,-4.2791,-4.2584,-4.2584,-4.2583,-4.2583,0,-4.2041,-4.2107,-4.2163,-4.2227,-4.2269,-4.2343,-4.2359,-4.2401,-4.2399,-4.2415,-4.2507,-4.2544,-4.2608,-4.2635,-4.2633,-4.2744,-4.2728,-4.2703,-4.2652,-4.2751,-4.2792,-4.2809,-4.259,-4.2588,-4.2587,-4.2586,0,0,-4.2184,-4.2251,-4.2271,-4.2301,-4.2355,-4.2406,-4.248,-4.2544,-4.258,-4.2627,-4.2688,-4.2777,-4.2755,-4.279,-4.2792,-4.2844,-4.2944,-4.2812,-4.2813,-4.2834,-4.3069,-4.3087,-4.3106,-4.2935,-4.2938,-4.2941,-4.3065,0,-4.2302,-4.243,-4.2437,-4.2554,-4.2615,-4.26,-4.2664,-4.2705,-4.2723,-4.2778,-4.2799,-4.2861,-4.2827,-4.2848,-4.2899,-4.2921,-4.2991,-4.2913,-4.2992,-4.2994,-4.2978,-4.3128,-4.3146,-4.3261,-4.3081,-4.3084,-4.3086,0,-4.2456,-4.2508,-4.2631,-4.2678,-4.2704,-4.2761,-4.282,-4.2873,-4.292,-4.293,-4.2971,-4.2966,-4.3042,-4.2991,-4.3096,-4.3043,-4.3076,-4.3092,-4.3097,-4.3103,-4.3045,-4.3136,-4.3298,-4.3315,-4.3112,-4.3109,-4.3108,0,-4.2546,-4.2647,-4.2734,-4.276,-4.2817,-4.2858,-4.2883,-4.2927,-4.2965,-4.3017,-4.3042,-4.3103,-4.3136,-4.3183,-4.3195,-4.3157,-4.33,-4.325,-4.331,-4.331,-4.3339,-4.3336,-4.3507,-4.3363,-4.3363,-4.3363,-4.3362,0,-4.2676,-4.2752,-4.2775,-4.2828,-4.2913,-4.2921,-4.3005,-4.3028,-4.3068,-4.3125,-4.3117,-4.3171,-4.3185,-4.3242,-4.3253,-4.3338,-4.3353,-4.3363,-4.3365,-4.3363,-4.3362,-4.3383,-4.3375,-4.3367,-4.3366,-4.3365,-4.3365,0,-4.279,-4.2809,-4.2902,-4.2949,-4.2963,-4.3023,-4.3064,-4.3115,-4.3133,-4.3207,-4.3224,-4.3253,-4.332,-4.3337,-4.3418,-4.3425,-4.3525,-4.352,-4.3509,-4.3508,-4.3567,-4.3561,-4.3756,-4.3782,-4.3623,-4.3624,-4.3625,0,-4.287,-4.2928,-4.2982,-4.302,-4.3048,-4.311,-4.3149,-4.316,-4.3201,-4.326,-4.3304,-4.3371,-4.3424,-4.3533,-4.356,-4.3622,-4.3618,-4.3682,-4.3627,-4.3623,-4.3617,-4.3613,-4.3619,-4.3692,-4.3693,-4.3695,-4.3696,0,-4.3011,-4.3018,-4.3075,-4.3135,-4.3182,-4.323,-4.3276,-4.3308,-4.3326,-4.3373,-4.3442,-4.3484,-4.3567,-4.3632,-4.3695,-4.3722,-4.3713,-4.3714,-4.373,-4.3728,-4.3719,-4.3724,-4.3536,-4.3708,-4.3707,-4.3706,-4.3705,-4.3705,-4.311,-4.3161,-4.3207,-4.3271,-4.3307,-4.3351,-4.3401,-4.3426,-4.3484,-4.3551,-4.3556,-4.363,-4.3677,-4.3761,-4.3792,-4.3851,-4.3831,-4.3856,-4.3862,-4.3867,-4.3872,-4.3711,-4.3862,-4.3862,-4.3862,-4.3861,-4.3861,0,-4.3249,-4.3279,-4.3337,-4.3402,-4.3453,-4.344,-4.3491,-4.3534,-4.36,-4.3644,-4.3698,-4.3777,-4.3842,-4.3876,-4.394,-4.3981,-4.3978,-4.3997,-4.3993,-4.4,-4.3886,-4.3864,-4.3999,-4.3999,-4.3999,-4.3999,-4.3999,-4.3998,-4.3328,-4.3413,-4.3426,-4.3529,-4.3558,-4.3631,-4.3662,-4.3702,-4.3738,-4.3827,-4.3881,-4.3903,-4.3944,-4.4011,-4.407,-4.4079,-4.4102,-4.4124,-4.413,-4.4022,-4.4008,-4.3994,-4.3974,-4.4129,-4.4129,-4.4238,-4.4239,-4.424]},{"header":{"parameterUnit":"m.s-1","parameterCategory":1,"la1":30.2991,"la2":30.254,"lo1":-89.0895,"lo2":-89.0444,"dy":0.0017,"dx":0.0017,"nx":28,"ny":28,"refTime":"2024-05-02T03:00:00:Z","depth":0,"parameterNumber":3,"parameterNumberName":"V-component_of_WINDS"},"data":[0,0,0,0,0,0,0,0,0,0,0,0,0,0,0,0,0,0,0,0,0,0,0,0,0,0,0,0,0,0,0,0,0,0,0,0,0,0,0,0,0,0,0,0,0,0,0,0,0,0,0,0,0,0,0,0,0,0,2.3552,2.3553,0,2.3576,2.3577,2.3577,2.3551,2.355,2.3549,2.3548,2.357,2.3572,2.3573,0,0,0,0,0,0,0,0,0,0,0,0,0,2.3483,2.3484,2.3552,2.3553,2.3553,2.3576,2.3577,2.3577,2.3551,2.355,2.3549,2.3548,2.357,2.3572,2.3574,0,0,0,0,0,0,0,0,0,0,0,0,0,2.351,2.3485,2.3552,2.3543,2.3542,2.3576,2.3577,2.3577,2.3551,2.355,2.3548,2.3547,2.3569,2.3572,2.3574,2.3618,0,0,2.3581,2.3582,0,0,0,0,0,0,0,0,2.3509,2.3513,2.3544,2.3544,2.3543,2.3559,2.356,2.3591,2.3552,2.3548,2.3548,2.3546,2.3568,2.357,2.3578,2.3619,2.362,2.3581,2.3582,2.3583,2.3584,0,0,0,0,0,0,0,2.3507,2.3512,2.3562,2.3545,2.3544,2.3537,2.3539,2.3566,2.3566,2.3548,2.3546,2.355,2.3567,2.3576,2.3578,2.362,2.3581,2.3583,2.3584,2.3585,2.3699,2.3701,0,0,0,0,0,0,2.3506,2.351,2.3561,2.3563,2.3522,2.354,2.3542,2.3556,2.3565,2.3566,2.3551,2.3548,2.3573,2.3576,2.3579,2.3631,2.3583,2.3586,2.3587,2.3697,2.3699,2.3701,0,0,0,0,0,0,2.3505,2.3511,2.356,2.3536,2.3542,2.3542,2.3558,2.3557,2.3565,2.3568,2.3567,2.356,2.3571,2.3576,2.3609,2.3632,2.3587,2.3589,2.3695,2.3698,2.37,2.3737,0,0,0,0,0,0,2.3503,2.3511,2.3528,2.3537,2.3543,2.359,2.3559,2.3558,2.3569,2.3566,2.3576,2.3576,2.3571,2.3605,2.3611,2.3634,2.359,2.3693,2.3697,2.3699,2.3733,2.374,2.3746,0,0,0,0,0,2.3501,2.3536,2.3529,2.3535,2.3564,2.3591,2.3595,2.3589,2.3571,2.3588,2.359,2.3576,2.3628,2.3609,2.3615,2.3639,2.3692,2.3696,2.3699,2.373,2.3739,2.3746,0,0,0,0,0,0,2.3529,2.3537,2.3529,2.3569,2.358,2.3587,2.3608,2.3598,2.3613,2.361,2.3601,2.3603,2.3638,2.3642,2.362,2.3683,2.3657,2.3662,2.3679,2.3687,2.3693,2.3691,2.3592,0,0,0,0,0,2.354,2.3562,2.3568,2.3602,2.3608,2.3607,2.3619,2.3613,2.3624,2.3628,2.3632,2.3643,2.3662,2.3674,2.3692,2.3734,2.3736,2.3753,2.376,2.3765,2.3769,2.3792,2.38,2.3713,2.3713,2.3713,0,0,2.3562,2.357,2.3584,2.3608,2.3616,2.3638,2.3611,2.3636,2.3652,2.3632,2.3663,2.3667,2.3678,2.3716,2.3733,2.372,2.3794,2.377,2.3774,2.3775,2.3797,2.3805,2.3813,2.3716,2.3715,2.3715,0,0,2.3615,2.3623,2.3653,2.3662,2.3675,2.3674,2.3681,2.3691,2.3692,2.3724,2.371,2.3729,2.3762,2.3771,2.3779,2.3837,2.3824,2.3843,2.3875,2.3898,2.3905,2.3911,2.3932,2.3939,2.3847,2.3847,2.3847,0,2.3641,2.3675,2.3669,2.3696,2.3707,2.369,2.3721,2.3729,2.3747,2.3755,2.374,2.3782,2.3788,2.3828,2.3843,2.385,2.3858,2.3842,2.3904,2.391,2.3916,2.3936,2.3944,2.385,2.3849,2.3849,2.3849,0,2.3707,2.3731,2.3754,2.3773,2.3786,2.3814,2.3812,2.3827,2.382,2.3821,2.3854,2.3861,2.3881,2.389,2.3883,2.3929,2.3921,2.3906,2.388,2.3926,2.3945,2.3953,2.3853,2.3852,2.3851,2.3851,0,0,2.3778,2.3794,2.3802,2.3811,2.3825,2.3843,2.387,2.389,2.3903,2.3915,2.3938,2.3967,2.3953,2.3963,2.3958,2.3978,2.4024,2.396,2.396,2.3972,2.4075,2.4087,2.4096,2.4016,2.4017,2.4018,2.4075,0,2.3831,2.388,2.3876,2.3922,2.3944,2.3929,2.3953,2.3964,2.3965,2.3984,2.3986,2.4007,2.3987,2.3993,2.4012,2.4014,2.4044,2.401,2.4036,2.4038,2.4034,2.4105,2.4118,2.417,2.4082,2.4083,2.4084,0,2.39,2.3917,2.3965,2.3976,2.3985,2.4007,2.4025,2.4044,2.4055,2.4055,2.4067,2.4059,2.4086,2.406,2.4098,2.4075,2.4086,2.4088,2.409,2.4093,2.4064,2.411,2.4187,2.4195,2.4095,2.4094,2.4093,0,2.3947,2.3982,2.4015,2.4023,2.4037,2.4053,2.4059,2.4069,2.4082,2.4098,2.4106,2.4124,2.4134,2.4149,2.4145,2.4127,2.4184,2.4158,2.4185,2.4185,2.4197,2.4197,2.4278,2.4204,2.4204,2.4204,2.4204,0,2.4007,2.4038,2.4037,2.4058,2.4091,2.4086,2.4119,2.4124,2.4134,2.4155,2.4143,2.4162,2.4157,2.4176,2.4174,2.4206,2.421,2.4211,2.421,2.4212,2.4212,2.4219,2.4215,2.4206,2.4205,2.4205,2.4205,0,2.4066,2.4066,2.4102,2.4113,2.4116,2.4141,2.4149,2.4169,2.417,2.4197,2.4203,2.4205,2.4227,2.4226,2.425,2.4249,2.4289,2.4283,2.4285,2.4284,2.4311,2.4309,2.44,2.4412,2.433,2.4331,2.4331,0,2.4104,2.4128,2.4141,2.4155,2.4163,2.4185,2.4198,2.4194,2.4208,2.4224,2.4242,2.4263,2.4281,2.4317,2.432,2.434,2.4335,2.4365,2.4337,2.4339,2.4336,2.4335,2.4337,2.4371,2.4372,2.4372,2.4373,0,2.4173,2.4172,2.4192,2.4213,2.4229,2.4244,2.4258,2.427,2.4268,2.4284,2.4308,2.4321,2.4348,2.4369,2.4388,2.4394,2.4383,2.4382,2.4389,2.4392,2.4392,2.4393,2.43,2.438,2.4379,2.4378,2.4378,2.4378,2.4223,2.4243,2.4256,2.4279,2.4289,2.4303,2.4322,2.4327,2.4347,2.4368,2.4365,2.4391,2.4403,2.4427,2.4435,2.4455,2.4444,2.4455,2.4458,2.446,2.4464,2.4389,2.4459,2.4459,2.4458,2.4458,2.4458,0,2.4291,2.4299,2.432,2.4341,2.4359,2.4348,2.4364,2.4379,2.4403,2.4416,2.4433,2.4461,2.4482,2.4487,2.4508,2.4523,2.4519,2.4529,2.4528,2.4529,2.4472,2.4464,2.4532,2.4532,2.4532,2.4532,2.4532,2.4532,2.4329,2.4363,2.4364,2.4404,2.4411,2.4438,2.4448,2.446,2.447,2.4502,2.452,2.4524,2.4533,2.4555,2.4574,2.4575,2.4583,2.4595,2.4594,2.4541,2.4533,2.4526,2.4519,2.4597,2.4597,2.465,2.465,2.465]}]]